Location: Capannuccia
(43.7000°N, 11.3000°E)
Time: 00:21:22
(UTC+00:00)

STARLINK-2732 - Pass Details

Date: 30 July 2021
Orbit: 546 x 548 km, 53.1° (Epoch: 20 September)

Event Time Altitude Azimuth Distance (km) Brightness Sun altitude
Rises 19:48:53 0° 302° (WNW) 2,722 9.2 -11.3°
Reaches altitude 10° 19:51:10 10° 297° (WNW) 1,825 7.7 -11.6°
Maximum altitude 19:55:12 52° 221° (SW) 687 4.1 -12.1°
Enters shadow 19:58:02 18° 150° (SSE) 1,375 5.1 -12.5°
